M0HZQ-1 Weather Reports


time (UTC)temp
C
wind
direction
speed
KPH
gust
KPH
rain 1hr
cm
rain 24hr
cm
rain mn
cm
humidity
%
barometer
mb
20260505193357 15 0 0.0 0.0 0.00 0.00 0.00 47 1012.5
20260505191604 15 0 0.0 0.0 0.00 0.00 0.00 46 1012.3
20260505185957 16 0 0.0 0.0 0.00 0.00 0.00 44 1012.1
20260505184229 17 0 0.0 0.0 0.00 0.00 0.00 43 1012.0
20260505182249 17 0 0.0 0.0 0.00 0.00 0.00 42 1011.9
20260505180337 17 0 0.0 0.0 0.00 0.00 0.00 41 1012.0
20260505174717 17 0 0.0 0.0 0.00 0.00 0.00 41 1012.0
20260505172857 18 0 0.0 0.0 0.00 0.00 0.00 40 1012.0
20260505170917 18 0 0.0 0.0 0.00 0.00 0.00 39 1012.0
20260505165137 18 0 0.0 0.0 0.00 0.00 0.00 40 1012.1
20260505163524 18 0 0.0 0.0 0.00 0.00 0.00 39 1012.0
20260505161914 18 0 0.0 0.0 0.00 0.00 0.00 39 1012.0
20260505152224 18 0 0.0 0.0 0.00 0.00 0.00 38 1012.1
20260505150417 18 0 0.0 0.0 0.00 0.00 0.00 38 1012.1
20260505124329 17 0 0.0 0.0 0.00 0.00 0.00 41 1012.9
20260505122634 18 0 0.0 0.0 0.00 0.00 0.00 40 1012.9
20260505120809 18 0 0.0 0.0 0.00 0.00 0.00 41 1012.8
20260505115114 17 0 0.0 0.0 0.00 0.00 0.00 43 1012.9
20260505113517 18 0 0.0 0.0 0.00 0.00 0.00 43 1013.0
20260505111609 17 0 0.0 0.0 0.00 0.00 0.00 44 1013.0
20260505100429 16 0 0.0 0.0 0.00 0.00 0.00 49 1013.4
20260505094554 16 0 0.0 0.0 0.00 0.00 0.00 51 1013.6
20260505092924 17 0 0.0 0.0 0.00 0.00 0.00 53 1013.6
20260505091154 15 0 0.0 0.0 0.00 0.00 0.00 55 1013.7
20260505085554 15 0 0.0 0.0 0.00 0.00 0.00 55 1013.7
20260505083844 15 0 0.0 0.0 0.00 0.00 0.00 57 1013.8
20260505082219 14 0 0.0 0.0 0.00 0.00 0.00 59 1013.7
20260505080339 14 0 0.0 0.0 0.00 0.00 0.00 59 1013.7
20260505074729 14 0 0.0 0.0 0.00 0.00 0.00 60 1013.6
20260505072754 13 0 0.0 0.0 0.00 0.00 0.00 61 1013.7
20260505070954 14 0 0.0 0.0 0.00 0.00 0.00 61 1013.8
20260505065024 14 0 0.0 0.0 0.00 0.00 0.00 62 1013.8
20260505063134 13 0 0.0 0.0 0.00 0.00 0.00 64 1013.9
20260505061304 13 0 0.0 0.0 0.00 0.00 0.00 65 1013.7
20260505055314 13 0 0.0 0.0 0.00 0.00 0.00 65 1013.9
20260505053344 13 0 0.0 0.0 0.00 0.00 0.00 65 1014.0
20260505051549 13 0 0.0 0.0 0.00 0.00 0.00 66 1014.0
20260505040229 12 0 0.0 0.0 0.00 0.00 0.00 68 1014.1
20260505034414 12 0 0.0 0.0 0.00 0.00 0.00 67 1014.1
20260505032414 12 0 0.0 0.0 0.00 0.00 0.00 67 1014.1
20260505030814 13 0 0.0 0.0 0.00 0.00 0.00 66 1014.1
20260505025109 13 0 0.0 0.0 0.00 0.00 0.00 66 1014.1
20260505023414 12 0 0.0 0.0 0.00 0.00 0.00 66 1014.3
20260505021434 13 0 0.0 0.0 0.00 0.00 0.00 64 1014.3
20260505015509 15 0 0.0 0.0 0.00 0.00 0.00 62 1014.3
20260505013617 15 0 0.0 0.0 0.00 0.00 0.00 61 1014.4
20260505011657 15 0 0.0 0.0 0.00 0.00 0.00 61 1014.7
20260505005924 16 0 0.0 0.0 0.00 0.00 0.00 62 1014.8
20260505004109 15 0 0.0 0.0 0.00 0.00 0.00 62 1014.7
20260505002429 15 0 0.0 0.0 0.00 0.00 0.00 63 1014.8
20260505000557 14 0 0.0 0.0 0.00 0.00 0.00 63 1014.8
20260504234934 14 0 0.0 0.0 0.00 0.00 0.00 62 1015.1
20260504233329 14 0 0.0 0.0 0.00 0.00 0.00 62 1015.2
20260504231329 14 0 0.0 0.0 0.00 0.00 0.00 62 1015.1
20260504225704 13 0 0.0 0.0 0.00 0.00 0.00 62 1015.2
20260504223834 13 0 0.0 0.0 0.00 0.00 0.00 62 1015.1
20260504221849 14 0 0.0 0.0 0.00 0.00 0.00 62 1015.3
20260504215914 14 0 0.0 0.0 0.00 0.00 0.00 62 1015.5
20260504214114 14 0 0.0 0.0 0.00 0.00 0.00 62 1015.5
20260504212454 14 0 0.0 0.0 0.00 0.00 0.00 62 1015.3
20260504210634 15 0 0.0 0.0 0.00 0.00 0.00 61 1015.3
20260504204804 15 0 0.0 0.0 0.00 0.00 0.00 61 1015.4
20260504202944 15 0 0.0 0.0 0.00 0.00 0.00 60 1015.2
20260504201029 16 0 0.0 0.0 0.00 0.00 0.00 60 1015.3
20260504195324 15 0 0.0 0.0 0.00 0.00 0.00 60 1015.0